Location: Mexico
(19.4000°N, 99.1500°W)
Time: 22:41:06
(UTC-06:00)

ISS - Pass Details

Date: 19 May 2019
Orbit: 407 x 410 km, 51.6° (Epoch: 23 May)

Event Time Altitude Azimuth Distance (km) Brightness Sun altitude
Rises 20:03:56 0° 250° (WSW) 2,316 0.7 -13.3°
Reaches altitude 10° 20:06:34 10° 273° (W) 1,458 0.1 -13.8°
Maximum altitude 20:08:43 16° 314° (NW) 1,141 -0.5 -14.3°
Drops below altitude 10° 20:10:52 10° 355° (N) 1,460 -0.6 -14.7°
Sets 20:13:30 0° 18° (NNE) 2,322 0.2 -15.3°
